Location: Belfast
(54.5830°N, 5.9330°W)
Time: 12:54:31
(UTC+01:00)

ISS - Pass Details

Date: 25 May 2018
Orbit: 402 x 407 km, 51.6° (Epoch: 20 May)

Event Time Altitude Azimuth Distance (km) Brightness Sun altitude
Rises 22:32:47 0° 243° (WSW) 2,317 0.2 -6.3°
Reaches altitude 10° 22:34:55 10° 236° (SW) 1,458 -0.9 -6.5°
Maximum altitude 22:38:00 39° 166° (SSE) 618 -3.3 -6.7°
Drops below altitude 10° 22:41:05 10° 95° (E) 1,460 -1.4 -7.0°
Sets 22:43:14 0° 88° (E) 2,320 -0.3 -7.2°
